Date String (YYYY-MM-DD hh:mm:ss) UTC,Instrument flags,Ambient pressure (hPa),Sample flow (lpm),Bypass flow (lpm),Sample temperature (°C),Ambient temperature (°C),ASC tube jacket temperature (°C),LED temperature (°C),Box temperature (°C),Sample RH (%),Span deviation,Mass concentration (μg/m³),Mass concentration (μg/m³),Mass concentration (μg/m³)
DateTimeUTC,F1_M11,P_M11,Q1_M11,Q2_M11,T1_M11,T2_M11,T3_M11,T4_M11,T5_M11,U1_M11,ZSPAN_M11,X0_M11,X2_M11,X1_M11
2023-01-25 20:00:00,,0827.1,5.00,0.00,21.5,19.6,00.0,30.3,23.1,08.4,0000.0,0005.06,0002.03,0001.74
2023-01-25 20:01:00,,0826.9,5.01,0.00,21.5,19.6,00.0,30.3,23.1,08.5,0000.0,0003.94,0002.05,0001.74
2023-01-25 20:02:00,,0827.0,5.01,0.00,21.5,20.0,00.0,30.3,23.1,08.4,0000.0,0004.33,0002.07,0001.75
2023-01-25 20:03:00,,0827.3,4.99,0.00,21.6,21.3,00.0,30.3,23.4,08.4,0000.0,0004.59,0002.09,0001.77
2023-01-25 20:04:00,,0827.2,4.99,0.00,21.7,22.2,00.0,30.3,23.6,08.3,0000.0,0004.15,0002.09,0001.78
2023-01-25 20:05:00,,0827.1,5.00,0.00,21.7,21.9,00.0,30.4,23.7,08.3,0000.0,0003.92,0002.10,0001.80
2023-01-25 20:06:00,,0827.2,5.01,0.00,21.8,21.4,00.0,30.4,23.6,08.4,0000.0,0003.93,0002.11,0001.82
2023-01-25 20:07:00,,0827.2,5.01,0.00,21.7,21.0,00.0,30.4,23.5,08.5,0000.0,0003.86,0002.09,0001.83
2023-01-25 20:08:00,,0827.6,5.01,0.00,21.7,20.7,00.0,30.4,23.5,08.5,0000.0,0003.81,0002.08,0001.84
2023-01-25 20:09:00,,0827.5,4.99,0.00,21.7,20.5,00.0,30.4,23.4,08.6,0000.0,0003.85,0002.09,0001.86
2023-01-25 20:10:00,,0827.2,5.01,0.00,21.7,20.4,00.0,30.4,23.4,08.6,0000.0,0003.85,0002.10,0001.87
2023-01-25 20:11:00,,0827.0,5.01,0.00,21.7,20.3,00.0,30.4,23.4,08.4,0000.0,0003.86,0002.11,0001.88
2023-01-25 20:12:00,,0827.1,5.00,0.00,21.7,20.2,00.0,30.4,23.4,08.4,0000.0,0003.37,0002.08,0001.89
2023-01-25 20:13:00,,0827.0,4.98,0.00,21.7,20.2,00.0,30.4,23.3,08.6,0000.0,0002.94,0002.06,0001.89
2023-01-25 20:14:00,,0827.0,4.98,0.00,21.7,20.1,00.0,30.4,23.3,08.3,0000.0,0002.62,0002.02,0001.87
2023-01-25 20:15:00,,0826.9,5.01,0.00,21.6,20.0,00.0,30.4,23.3,08.2,0000.0,0002.70,0002.05,0001.86
2023-01-25 20:16:00,,0826.9,4.99,0.00,21.6,19.9,00.0,30.4,23.2,08.4,0000.0,0002.73,0002.06,0001.83
2023-01-25 20:17:00,,0826.8,5.00,0.00,21.6,19.8,00.0,30.4,23.2,08.2,0000.0,0002.76,0002.05,0001.80
2023-01-25 20:18:00,,0826.9,5.00,0.00,21.6,19.8,00.0,30.4,23.1,08.2,0000.0,0002.82,0002.07,0001.79
2023-01-25 20:19:00,,0826.8,5.00,0.00,21.5,19.8,00.0,30.4,23.2,08.2,0000.0,0002.79,0002.07,0001.79
2023-01-25 20:20:00,,0826.8,4.99,0.00,21.5,19.7,00.0,30.4,23.1,08.3,0000.0,0002.68,0002.05,0001.77
2023-01-25 20:21:00,,0826.9,5.00,0.00,21.5,19.7,00.0,30.4,23.1,08.3,0000.0,0002.70,0002.05,0001.76
2023-01-25 20:22:00,,0827.2,5.00,0.00,21.5,19.8,00.0,30.3,23.1,08.3,0000.0,0002.79,0002.10,0001.77
2023-01-25 20:23:00,,0827.1,4.98,0.00,21.5,19.8,00.0,30.3,23.1,08.4,0000.0,0002.84,0002.12,0001.78
2023-01-25 20:24:00,,0827.0,5.01,0.00,21.5,19.9,00.0,30.3,23.2,08.6,0000.0,0002.88,0002.13,0001.78
2023-01-25 20:25:00,,0826.9,5.00,0.00,21.5,20.0,00.0,30.3,23.2,08.6,0000.0,0002.89,0002.14,0001.79
2023-01-25 20:26:00,,0826.9,4.98,0.00,21.5,20.1,00.0,30.3,23.2,08.7,0000.0,0002.90,0002.15,0001.80
2023-01-25 20:27:00,,0827.0,5.00,0.00,21.5,20.1,00.0,30.3,23.3,08.8,0000.0,0003.15,0002.18,0001.83
2023-01-25 20:28:00,,0827.0,5.00,0.00,21.5,20.1,00.0,30.3,23.3,08.8,0000.0,0004.37,0002.20,0001.85
2023-01-25 20:29:00,,0827.0,4.99,0.00,21.5,20.1,00.0,30.3,23.2,08.5,0000.0,0004.32,0002.19,0001.86
2023-01-25 20:30:00,,0827.1,4.99,0.00,21.5,20.0,00.0,30.3,23.2,08.4,0000.0,0004.29,0002.18,0001.87
2023-01-25 20:31:00,,0826.8,5.01,0.00,21.5,20.0,00.0,30.3,23.2,08.5,0000.0,0004.46,0002.22,0001.87
2023-01-25 20:32:00,,0827.1,4.98,0.00,21.5,20.1,00.0,30.3,23.2,08.5,0000.0,0004.49,0002.21,0001.87
2023-01-25 20:33:00,,0826.8,5.00,0.00,21.5,20.1,00.0,30.3,23.3,08.5,0000.0,0004.33,0002.14,0001.86
2023-01-25 20:34:00,,0826.8,4.99,0.00,21.5,20.4,00.0,30.3,23.3,08.6,0000.0,0004.33,0002.12,0001.84
2023-01-25 20:35:00,,0826.9,5.00,0.00,21.6,21.6,00.0,30.3,23.6,08.5,0000.0,0004.39,0002.13,0001.84
2023-01-25 20:36:00,,0826.9,4.98,0.00,21.8,22.5,00.0,30.3,23.8,08.5,0000.0,0004.49,0002.15,0001.86
2023-01-25 20:37:00,,0826.8,4.99,0.00,21.8,22.0,00.0,30.4,23.8,08.4,0000.0,0004.50,0002.15,0001.85
2023-01-25 20:38:00,,0826.8,4.98,0.00,21.8,21.5,00.0,30.4,23.7,08.3,0000.0,0004.46,0002.15,0001.85
2023-01-25 20:39:00,,0826.7,5.00,0.00,21.8,21.0,00.0,30.5,23.5,08.4,0000.0,0003.02,0002.13,0001.84
2023-01-25 20:40:00,,0826.7,5.00,0.00,21.8,20.6,00.0,30.5,23.4,08.5,0000.0,0002.98,0002.12,0001.84
2023-01-25 20:41:00,,0826.7,5.01,0.00,21.8,20.3,00.0,30.5,23.4,09.0,0000.0,0003.03,0002.14,0001.84
2023-01-25 20:42:00,,0826.7,5.01,0.00,21.7,20.1,00.0,30.5,23.3,09.5,0000.0,0002.96,0002.15,0001.85
2023-01-25 20:43:00,,0826.8,4.99,0.00,21.7,20.0,00.0,30.5,23.3,09.7,0000.0,0002.92,0002.17,0001.87
2023-01-25 20:44:00,,0826.8,5.01,0.00,21.6,19.9,00.0,30.4,23.2,09.9,0000.0,0003.01,0002.23,0001.92
2023-01-25 20:45:00,,0826.8,5.01,0.00,21.6,19.9,00.0,30.4,23.2,10.1,0000.0,0003.07,0002.28,0001.96
2023-01-25 20:46:00,,0826.8,4.98,0.00,21.6,19.8,00.0,30.4,23.1,09.8,0000.0,0003.06,0002.33,0002.03
2023-01-25 20:47:00,,0826.8,5.01,0.00,21.5,19.7,00.0,30.4,23.1,09.6,0000.0,0003.00,0002.36,0002.07
2023-01-25 20:48:00,,0826.8,5.00,0.00,21.5,19.6,00.0,30.4,23.0,09.7,0000.0,0003.04,0002.41,0002.13
2023-01-25 20:49:00,,0826.8,5.01,0.00,21.5,19.5,00.0,30.4,22.9,09.7,0000.0,0003.20,0002.47,0002.20
2023-01-25 20:50:00,,0826.8,5.00,0.00,21.4,19.5,00.0,30.4,22.9,09.9,0000.0,0003.36,0002.54,0002.27
2023-01-25 20:51:00,,0826.7,4.99,0.00,21.4,19.4,00.0,30.4,22.9,10.1,0000.0,0003.50,0002.63,0002.36
2023-01-25 20:52:00,,0826.8,5.01,0.00,21.4,19.7,00.0,30.3,22.9,09.8,0000.0,0003.73,0002.70,0002.43
2023-01-25 20:53:00,,0826.8,4.99,0.00,21.5,21.1,00.0,30.3,23.2,09.6,0000.0,0003.86,0002.74,0002.50
2023-01-25 20:54:00,,0826.9,4.99,0.00,21.6,22.1,00.0,30.3,23.5,09.7,0000.0,0004.00,0002.80,0002.56
2023-01-25 20:55:00,,0826.9,4.99,0.00,21.7,21.8,00.0,30.4,23.5,09.9,0000.0,0004.40,0002.86,0002.60
2023-01-25 20:56:00,,0826.8,5.01,0.00,21.7,21.3,00.0,30.4,23.5,10.5,0000.0,0005.36,0002.88,0002.63
2023-01-25 20:57:00,,0826.8,5.00,0.00,21.7,20.9,00.0,30.4,23.3,10.0,0000.0,0005.36,0002.90,0002.65
2023-01-25 20:58:00,,0826.8,5.00,0.00,21.6,20.6,00.0,30.4,23.3,09.9,0000.0,0005.38,0002.92,0002.67
2023-01-25 20:59:00,,0826.8,4.99,0.00,21.6,20.3,00.0,30.4,23.2,10.1,0000.0,0005.45,0002.94,0002.68
